SL-12 R/B(2), 33383

Orbit data source: Space-Track

SL-12 R/B(2), 33383 is space debris in MEO originally from a launch on Thu, 25 Sep 2008 UTC launched from the Tyuratam Missile And Space Complex (TTMTR). Debris objects in space refer to the collection of defunct objects orbiting the Earth. Examples of debris include non-operational satellites, rocket bodies, and fragments generated from explosions, collisions, or faulty payload assembly.

Loading next visibility...
Identifier
33383, 2008-046F
Orbit
MEO
Country
Flag of CISCIS
Related business
Manufacturer
RKKE
Mission
Spacecraft
Bus & Motor
BLOK DM2, 11D58M
Mass
2,440 kg wet, 2,440 kg dry
Launch date (UTC)
2008-09-25 (17 years ago)
Launch vehicle
Unknown
Launch site
Tyuratam Missile And Space Complex (TTMTR)
Object type
Payload
Rocket body
Debris
Shape & HBR
Cyl, 3.1 m
Radar Cross Section
23.684 m², Large (>1 m²)

Expand to show TLE details & history
Last TLE update: 11 hours ago

TLE from 11 hours ago
0 SL-12 R/B(2)
1 33383U 08046F   26062.26808697 -.00000049  00000-0  00000+0 0  9993
2 33383  65.5216 318.1368 0019377 197.8376 335.8891  2.13271620135803
Epoch: 2026-03-03T06:26Z
TLE epoch observation values (Epoch: 2026-03-03T06:26:02.714Z)
Latitude
5.79867°
Longitude
-122.05652°
Altitude
19,071.235 km
Speed
3.961 km/s
True Right ascension
09h 02m 01s
True Declination
5° 47' 20"
Sunlit
Object was in daylight at epoch
Visualization orbit readout
Latitude
Unknown
Longitude
Unknown
Altitude
Unknown
Speed
Unknown
Apparent Right ascension
Unknown
Apparent Declination
Unknown
Sunlit
N/A
Visualization observer readout
Local Sidereal Time
20:46:00
Azimuth
Unknown
Elevation
Unknown
Doppler factor
Unknown
Orbital elements
Apogee altitude
19,165.358 km
Perigee altitude
19,066.558 km
Semi-major axis
25,494.095 km
Eccentricity
0.00194
Inclination
65.5216°
RAAN
318.1368°
Arg. of periapsis
197.8376°
True anomaly
335.79819°
Mean anomaly
335.8891°
Eccentric anomaly
335.84367°
Mean motion
0.53319 °/min
Orbital period
675.18 mins
BSTAR
0
Loading maneuver chart data...
Computing Atmospheric mass density...
Loading historical data...
Loading historical data...
Loading historical data...
Loading historical data...
Loading historical data...
Loading historical data...
Loading historical data...

Documentation

Showing up to 5 results
|